Location: Azenweiler
(47.8027°N, 9.4096°E)
Time: 17:38:26
(UTC+00:00)

Cosmos 2322 Rocket - Pass Details

Date: 10 December 2025
Orbit: 831 x 850 km, 71.0° (Epoch: 22 January)

Event Time Altitude Azimuth Distance (km) Brightness Sun altitude
Exits shadow 06:14:40 - 317° (NW) 2,737 4.3 -7.5°
Reaches altitude 10° 06:15:27 10° 313° (NW) 2,482 4.0 -7.3°
Maximum altitude 06:20:09 27° 257° (WSW) 1,568 3.2 -6.6°
Drops below altitude 10° 06:24:49 10° 201° (SSW) 2,460 4.7 -5.9°
Sets 06:27:34 0° 190° (S) 3,387 5.6 -5.5°
